Location: Zagreb
(45.8000°N, 16.0000°E)
Time: 15:22:52
(UTC+02:00)

Envisat - Pass Details

Date: 26 June 2022
Orbit: 763 x 765 km, 98.2° (Epoch: 16 August)

Event Time Altitude Azimuth Distance (km) Brightness Sun altitude
Rises 04:12:21 0° 30° (NNE) 3,243 8.1 -8.1°
Reaches altitude 10° 04:15:34 10° 51° (NE) 2,310 7.2 -7.7°
Maximum altitude 04:18:41 16° 89° (E) 1,911 5.8 -7.3°
Drops below altitude 10° 04:21:47 10° 127° (SE) 2,298 5.6 -6.9°
Sets 04:24:58 0° 149° (SSE) 3,218 6.1 -6.5°
